Regional Weather Roundup
Issued by NWS Northern Indiana

Home | Current Version | Previous Version | Text Only | Print | Product List | Glossary Off
Versions: 1 2 3 4 5 6 7 8 9 10 11 12 13 14 15 16 17 18 19 20 21 22 23 24 25 26 27 28 29 30 31 32 33 34 35 36 37 38 39 40 41 42 43 44 45 46 47 48 49 50

000
ASUS43 KIWX 221610
RWRIWX

KIWX WEATHER ROUNDUP
NATIONAL WEATHER SERVICE NORTHERN INDIANA
1100 AM EST MON DEC 22 2014

NOTE: "FAIR" INDICATES FEW OR NO CLOUDS BELOW 12,000 FEET WITH NO
SIGNIFICANT WEATHER AND/OR OBSTRUCTIONS TO VISIBILITY.

* THESE STATIONS ARE NOT UNDER NWS QUALITY CONTROL. THEY ALSO MAY NOT
  REPORT WEATHER SUCH AS PRECIPITATION OR FOG.

INZ001>027-221700-
NORTHERN INDIANA

CITY           SKY/WX    TMP DP  RH WIND       PRES   REMARKS
GARY*          CLOUDY    36  25  64 SE9       29.90F
VALPARAISO     CLOUDY    33  28  81 E9        29.92F WCI  25
MICHIGAN CITY* CLOUDY    32  25  74 SE7       29.92F WCI  26
LAPORTE*       CLOUDY    34  30  86 E8        29.93F FOG     WCI  27
KNOX*          CLOUDY    33  26  74 SE9       29.92F WCI  25
SOUTH BEND     CLOUDY    32  26  78 E12       29.94F WCI  23
ELKHART*       CLOUDY    32  25  74 E6        29.96F HAZE    WCI  26
GOSHEN         CLOUDY    32  26  78 SE13      29.95F HAZE    WCI  22
MONTICELLO*    CLOUDY    33  30  88 E5        29.92S WCI  29
LOGANSPORT*    CLOUDY    32  30  93 E8        29.94S FOG     WCI  25
ROCHESTER*     PTSUNNY   34  32  93 SE8       29.95S FOG     WCI  27
WARSAW*        PTSUNNY   32  28  86 SE7       29.95F FOG     WCI  26
ANGOLA*        MOSUNNY   28  25  86 E8        29.97F WCI  20
FORT WAYNE     CLOUDY    31  27  85 E9        29.98F FOG     WCI  23
HUNTINGTON*    CLOUDY    32  29  90 E6        29.97S FOG     WCI  26
MARION*        CLOUDY    35  30  83 SE10      29.95F WCI  27

$$
INZ028>050-221700-
CENTRAL INDIANA

CITY           SKY/WX    TMP DP  RH WIND       PRES   REMARKS
LAFAYETTE      CLOUDY    36  31  82 SE5       29.92S
KOKOMO*        CLOUDY    34  30  86 SE9       29.93F WCI  26
MUNCIE*        CLOUDY    38  31  76 SE8       29.95F
INDIANAPOLIS   CLOUDY    36  31  82 SE9       29.93R

$$
MIZ043>046-050>051-056>058-064>065-071>073-077>080-221700-
SOUTHWEST LOWER MICHIGAN

CITY           SKY/WX    TMP DP  RH WIND       PRES   REMARKS
BATTLE CREEK   CLOUDY    32  24  72 E9        29.99F WCI  24
BENTON HARBOR  CLOUDY    31  26  82 SE10G20   29.94F HAZE    WCI  22
COLDWATER*     CLOUDY    31  26  81 MISG      29.98F HAZE
HILLSDALE*     CLOUDY    31  28  85 SE9       30.00F WCI  23
HOLLAND        CLOUDY    33  26  75 E12       29.97F WCI  24
GRAND RAPIDS   PTSUNNY   32  25  75 E12       30.00F HAZE    WCI  23
KALAMAZOO      CLOUDY    32  25  75 E9        29.98F HAZE    WCI  24
STURGIS*       CLOUDY    30  27  86 E9        29.96F FOG     WCI  22
THREE RIVERS*  CLOUDY    30  26  83 E8        29.97F FOG     WCI  23

$$
OHZ001>008-015>018-024>025-221700-
NORTHWEST OHIO

CITY           SKY/WX    TMP DP  RH WIND       PRES   REMARKS
WAUSEON*       FAIR      32  27  80 VRB5      30.03F HAZE    WCI  27
DEFIANCE       CLOUDY    31  26  82 E8        30.00F HAZE    WCI  23
FINDLAY        CLOUDY    33  27  78 E8        30.01F HAZE    WCI  26
TOLEDO EXPRESS PTSUNNY   32  26  78 E7        30.05F HAZE    WCI  26
TOLEDO METCALF PTSUNNY   32  25  75 E5        30.07F HAZE    WCI  27
LIMA           MOSUNNY   39  30  70 SE13      29.99F HAZE

$$
AND FOR LAKE MICHIGAN COASTAL AND OPEN LAKE BUOY OBSERVATIONS

STATION/POSITION TEMP    WIND        PRES    VSBY  WAVE
                 AIR SEA DIR/SP/G                  HT/PER
                 (F)     (DEG/KT/KT) (MB)    (MI)  (FT/S)
CALUMET HARBOR    34     110/ 11/ 13 1011.2F
SAINT JOSEPH      32      70/  2/  7 1013.9F

$$
&&


USA.gov is the U.S. government's official web portal to all federal, state and local government web resources and services.